User: anonymous   Login
Location: Moscow
(55.7500°N, 37.5830°E)
Time: 20:14:45
(UTC+03:00)
Language:

Transit 2A - Orbit

View from above orbital plane
View from above orbital plane
View from above satellite
View from above satellite

Ground track
Ground track

The orbit data is extracted from the following two-line orbital elements,

1 00045U 60007A   21339.89156486  .00000034  00000-0  35071-4 0  9994
2 00045  66.6958  47.1832 0262376 284.7289  72.4869 14.33754421142739
Epoch (UTC): 05 December 2021 21:23:51
Eccentricity: 0.0262376
inclination: 66.6958°
perigee height: 591 km
apogee height: 967 km
right ascension of ascending node: 47.1832°
argument of perigee: 284.7289°
revolutions per day: 14.33754421
mean anomaly at epoch: 72.4869°
orbit number at epoch: 14273

The dashed part of the orbit path shows where the satellite is in the earth's shadow,  

DLR